• In Hungary
  • List of Countries
  • For 7 days
  • Water Temperature
  • Satellite Maps
  • Weather Map
  • News
  • Weather Widgets
  • user-avatar
    Login

    Hourly Weather Peremilovo

    Today, 16 December, Saturday

    Time Temperature Precipitation Wind Pressure Humidity
    00:00 -4°C° 0 mm 3 mps 746 mmHg 93%
    01:00 -5°C° 0 mm 3 mps 746 mmHg 94%
    02:00 -5°C° 0 mm 3 mps 745 mmHg 94%
    03:00 -4°C° 0 mm 3 mps 745 mmHg 94%
    04:00 -3°C° 0 mm 4 mps 744 mmHg 93%
    05:00 -2°C° 0 mm 4 mps 744 mmHg 93%
    06:00 -2°C° 0.2 mm 4 mps 744 mmHg 92%
    07:00 -1°C° 0.2 mm 5 mps 743 mmHg 92%
    08:00 0°C° 0.2 mm 5 mps 743 mmHg 92%
    09:00 0°C° 0.5 mm 5 mps 743 mmHg 92%
    10:00 0°C° 0.5 mm 5 mps 742 mmHg 92%
    11:00 0°C° 0.5 mm 5 mps 742 mmHg 92%
    12:00 0°C° 0.3 mm 5 mps 742 mmHg 93%
    13:00 0°C° 0.3 mm 4 mps 742 mmHg 93%
    14:00 0°C° 0.3 mm 4 mps 743 mmHg 94%
    15:00 0°C° 0.4 mm 4 mps 742 mmHg 95%
    16:00 +1°C° 0.4 mm 3 mps 742 mmHg 95%
    17:00 +1°C° 0.4 mm 3 mps 742 mmHg 95%
    18:00 0°C° 0.4 mm 4 mps 741 mmHg 95%
    19:00 0°C° 0.4 mm 4 mps 740 mmHg 96%
    20:00 +1°C° 0.4 mm 5 mps 740 mmHg 96%
    21:00 +1°C° 1.5 mm 5 mps 739 mmHg 95%
    22:00 +1°C° 1.5 mm 6 mps 738 mmHg 95%
    23:00 +2°C° 1.5 mm 7 mps 737 mmHg 94%

    Tomorrow, 17 December, Sunday

    Time Temperature Precipitation Wind Pressure Humidity
    00:00 +2°C° 1.1 mm 7 mps 736 mmHg 93%
    01:00 +3°C° 1.1 mm 7 mps 735 mmHg 93%
    02:00 +3°C° 1.1 mm 7 mps 735 mmHg 92%
    03:00 +3°C° 0.5 mm 7 mps 734 mmHg 92%
    04:00 +3°C° 0.5 mm 7 mps 734 mmHg 91%
    05:00 +3°C° 0.5 mm 7 mps 734 mmHg 91%
    06:00 +2°C° 0.1 mm 7 mps 735 mmHg 87%
    07:00 0°C° 0.1 mm 8 mps 736 mmHg 83%
    08:00 -1°C° 0.1 mm 8 mps 737 mmHg 79%
    09:00 -1°C° 0 mm 7 mps 739 mmHg 79%
    10:00 -1°C° 0 mm 7 mps 740 mmHg 80%
    11:00 -1°C° 0 mm 6 mps 742 mmHg 80%
    12:00 -2°C° 0 mm 6 mps 743 mmHg 81%
    13:00 -1°C° 0 mm 5 mps 744 mmHg 82%
    14:00 -1°C° 0 mm 4 mps 745 mmHg 83%
    15:00 -2°C° 0 mm 4 mps 746 mmHg 84%
    16:00 -1°C° 0 mm 3 mps 747 mmHg 84%
    17:00 -1°C° 0 mm 3 mps 747 mmHg 85%
    18:00 -2°C° 0 mm 2 mps 748 mmHg 87%
    19:00 -2°C° 0 mm 2 mps 749 mmHg 89%
    20:00 -2°C° 0 mm 2 mps 749 mmHg 91%
    21:00 0°C° 0 mm 1 mps 749 mmHg 91%
    22:00 -1°C° 0 mm 1 mps 750 mmHg 92%
    23:00 -1°C° 0 mm 1 mps 750 mmHg 92%

    Day after tomorrow, 18 December, Monday

    Time Temperature Precipitation Wind Pressure Humidity
    00:00 -1°C° 0 mm 1 mps 750 mmHg 92%
    01:00 -1°C° 0 mm 1 mps 751 mmHg 92%
    02:00 -2°C° 0 mm 0 mps 751 mmHg 92%
    03:00 -1°C° 0 mm 1 mps 751 mmHg 91%
    04:00 -1°C° 0 mm 1 mps 751 mmHg 90%
    05:00 -1°C° 0 mm 1 mps 751 mmHg 90%
    06:00 -1°C° 0 mm 1 mps 751 mmHg 90%
    07:00 -1°C° 0 mm 1 mps 751 mmHg 90%
    08:00 -1°C° 0 mm 1 mps 751 mmHg 90%
    09:00 -1°C° 0 mm 1 mps 751 mmHg 89%
    10:00 -1°C° 0 mm 1 mps 751 mmHg 88%
    11:00 0°C° 0 mm 1 mps 752 mmHg 87%
    12:00 0°C° 0 mm 1 mps 751 mmHg 88%
    13:00 -3°C° 0 mm 2 mps 751 mmHg 89%
    14:00 -3°C° 0 mm 2 mps 751 mmHg 89%
    15:00 -3°C° 0 mm 2 mps 751 mmHg 90%
    16:00 -3°C° 0 mm 2 mps 752 mmHg 90%
    17:00 -4°C° 0 mm 3 mps 752 mmHg 91%
    18:00 -4°C° 0 mm 3 mps 752 mmHg 91%
    19:00 -4°C° 0 mm 3 mps 752 mmHg 90%
    20:00 -4°C° 0 mm 3 mps 752 mmHg 90%
    21:00 -4°C° 0 mm 4 mps 752 mmHg 89%
    22:00 -4°C° 0 mm 4 mps 752 mmHg 88%
    23:00 -4°C° 0 mm 4 mps 752 mmHg 87%

    19 December, Tuesday

    Time Temperature Precipitation Wind Pressure Humidity
    00:00 -4°C° 0 mm 4 mps 752 mmHg 86%
    01:00 -4°C° 0 mm 4 mps 752 mmHg 85%
    02:00 -4°C° 0 mm 4 mps 752 mmHg 84%
    03:00 -4°C° 0 mm 4 mps 752 mmHg 85%
    04:00 -4°C° 0 mm 4 mps 752 mmHg 85%
    05:00 -4°C° 0 mm 4 mps 752 mmHg 86%
    06:00 -4°C° 0 mm 4 mps 752 mmHg 86%
    07:00 -4°C° 0 mm 4 mps 753 mmHg 86%
    08:00 -5°C° 0 mm 5 mps 753 mmHg 86%
    09:00 -6°C° 0 mm 5 mps 753 mmHg 85%
    10:00 -6°C° 0 mm 5 mps 753 mmHg 85%
    11:00 -6°C° 0 mm 5 mps 753 mmHg 84%
    12:00 -6°C° 0.1 mm 5 mps 753 mmHg 84%
    13:00 -6°C° 0.1 mm 5 mps 753 mmHg 84%
    14:00 -6°C° 0.1 mm 5 mps 753 mmHg 85%
    15:00 -6°C° 0.2 mm 5 mps 753 mmHg 85%
    16:00 -6°C° 0.2 mm 5 mps 753 mmHg 86%
    17:00 -6°C° 0.2 mm 5 mps 753 mmHg 86%
    18:00 -6°C° 0.2 mm 5 mps 753 mmHg 87%
    19:00 -6°C° 0.2 mm 5 mps 753 mmHg 87%
    20:00 -6°C° 0.2 mm 5 mps 754 mmHg 88%
    21:00 -6°C° 0.2 mm 5 mps 754 mmHg 88%
    22:00 -5°C° 0.2 mm 4 mps 754 mmHg 88%
    23:00 -5°C° 0.2 mm 4 mps 754 mmHg 88%

    20 December, Wednesday

    Time Temperature Precipitation Wind Pressure Humidity
    00:00 -5°C° 0.1 mm 4 mps 754 mmHg 88%
    01:00 -5°C° 0.1 mm 4 mps 754 mmHg 88%
    02:00 -5°C° 0.1 mm 4 mps 754 mmHg 88%
    03:00 -5°C° 0 mm 4 mps 754 mmHg 88%
    04:00 -5°C° 0 mm 4 mps 755 mmHg 88%
    05:00 -5°C° 0 mm 3 mps 755 mmHg 88%
    06:00 -5°C° 0.1 mm 3 mps 755 mmHg 89%
    07:00 -5°C° 0.1 mm 3 mps 755 mmHg 89%
    08:00 -5°C° 0.1 mm 3 mps 755 mmHg 90%
    09:00 -5°C° 0.1 mm 3 mps 756 mmHg 89%
    10:00 -5°C° 0.1 mm 3 mps 756 mmHg 89%
    11:00 -5°C° 0.1 mm 3 mps 756 mmHg 89%
    12:00 -4°C° 0.1 mm 2 mps 756 mmHg 89%
    13:00 -4°C° 0.1 mm 2 mps 756 mmHg 89%
    14:00 -4°C° 0.1 mm 2 mps 756 mmHg 90%
    15:00 -2°C° 0.1 mm 1 mps 756 mmHg 91%
    16:00 -2°C° 0.1 mm 1 mps 756 mmHg 92%
    17:00 -2°C° 0.1 mm 1 mps 756 mmHg 93%
    18:00 -2°C° 0 mm 1 mps 756 mmHg 93%
    19:00 -3°C° 0 mm 1 mps 756 mmHg 94%
    20:00 -4°C° 0 mm 0 mps 756 mmHg 94%
    21:00 -4°C° 0 mm 0 mps 756 mmHg 94%
    22:00 -4°C° 0 mm 0 mps 756 mmHg 94%
    23:00 -3°C° 0 mm 0 mps 756 mmHg 94%

    21 December, Thursday

    Time Temperature Precipitation Wind Pressure Humidity
    00:00 -4°C° 0 mm 0 mps 756 mmHg 95%
    01:00 -3°C° 0 mm 1 mps 756 mmHg 95%
    02:00 -3°C° 0 mm 1 mps 756 mmHg 96%
    03:00 -3°C° 0 mm 1 mps 755 mmHg 96%
    04:00 -3°C° 0 mm 1 mps 755 mmHg 95%
    05:00 -5°C° 0 mm 2 mps 755 mmHg 95%
    06:00 -5°C° 0 mm 2 mps 755 mmHg 95%
    07:00 -5°C° 0 mm 2 mps 755 mmHg 95%
    08:00 -5°C° 0 mm 2 mps 755 mmHg 95%
    09:00 -6°C° 0 mm 3 mps 755 mmHg 93%
    10:00 -5°C° 0 mm 3 mps 755 mmHg 91%
    11:00 -5°C° 0 mm 3 mps 755 mmHg 89%
    12:00 -5°C° 0 mm 4 mps 754 mmHg 88%
    13:00 -5°C° 0 mm 4 mps 754 mmHg 87%
    14:00 -5°C° 0 mm 4 mps 753 mmHg 86%
    15:00 -7°C° 0 mm 4 mps 753 mmHg 86%
    16:00 -7°C° 0 mm 4 mps 753 mmHg 86%
    17:00 -7°C° 0 mm 4 mps 752 mmHg 87%
    18:00 -7°C° 0 mm 4 mps 752 mmHg 86%
    19:00 -7°C° 0 mm 4 mps 751 mmHg 86%
    20:00 -7°C° 0 mm 4 mps 751 mmHg 86%
    21:00 -7°C° 0.1 mm 5 mps 751 mmHg 85%
    22:00 -7°C° 0.1 mm 5 mps 750 mmHg 85%
    23:00 -7°C° 0.1 mm 5 mps 750 mmHg 84%
    Show more